Wind_Speed
5 6 5 5 5 5 5 5 5 6 7 7 7 7 8 8 8 9 9 10 11 12 12 13 13 14 14 14 15 15 15 16 16 17 17 17 17 17 16 16 16 16 15 14
5 5 5 5 5 5 6 6 6 7 8 8 9 9 9 10 10 10 11 12 13 13 14 14 15 15 15 16 16 16 17 17 18 18 18 18 18 18 18 17 17 17 16 15
6 6 6 5 6 6 7 7 8 9 9 10 11 11 11 11 12 13 13 14 14 15 15 16 17 17 17 17 18 18 19 19 19 19 19 19 19 19 19 19 18 18 18 17
7 7 7 7 7 8 9 9 10 11 11 12 12 13 13 14 14 15 16 16 17 17 18 19 19 20 20 20 20 20 21 21 21 21 21 21 21 21 21 20 20 19 19 19
9 9 10 10 10 10 11 11 11 12 13 14 14 15 16 16 17 18 19 19 19 20 21 21 22 22 23 23 23 23 23 23 23 23 23 23 23 23 23 23 22 22 21 21
11 12 12 12 12 13 13 13 13 14 14 15 17 18 18 19 20 20 21 22 22 23 24 24 25 25 26 26 26 26 26 26 26 26 26 26 25 25 26 25 25 24 24 23
13 14 14 14 14 15 15 15 15 16 16 17 19 20 21 22 23 24 24 24 25 26 27 27 28 28 28 29 29 29 29 29 29 29 29 29 29 28 28 28 28 27 27 26
16 16 16 16 17 17 17 17 18 18 19 20 21 22 23 24 25 26 27 27 28 29 30 30 31 31 32 32 32 33 33 33 33 33 33 33 32 32 31 31 31 31 30 30
18 18 19 19 19 20 20 21 21 22 23 24 25 25 26 27 28 29 30 31 32 33 34 34 35 35 36 36 36 36 36 36 36 36 36 36 36 35 35 34 34 33 33 32
21 21 21 22 22 23 24 24 25 25 26 27 28 29 30 31 32 33 34 35 36 37 38 39 39 39 39 39 39 39 40 40 40 40 39 39 39 38 38 37 36 36 35 34
23 24 24 25 25 26 27 28 28 29 30 31 32 33 34 35 36 37 38 39 40 41 42 43 43 43 43 43 43 43 43 43 43 43 43 42 41 41 40 39 39 38 38 38
26 26 27 28 29 29 30 31 32 33 33 34 35 36 38 39 40 41 42 43 44 45 46 46 46 46 46 46 46 46 46 46 46 46 45 45 44 44 43 42 42 42 41 41
29 29 30 31 32 32 33 34 35 36 36 37 39 40 41 42 43 45 46 46 47 48 48 48 48 48 49 48 48 47 48 48 48 48 47 47 46 46 45 44 44 43 43 43
31 32 33 34 34 35 36 37 38 39 40 41 42 43 44 45 46 47 48 49 49 49 49 50 50 50 50 50 49 49 49 49 49 49 48 48 47 47 46 46 45 45 45 45
34 35 36 36 37 38 39 40 41 41 42 44 45 46 47 48 49 49 50 50 50 50 51 51 51 51 51 51 51 51 51 51 51 51 50 49 48 48 48 48 48 47 47 47
36 37 38 39 40 41 42 42 43 44 45 47 48 49 50 51 51 51 51 51 51 51 51 52 51 51 52 52 53 53 53 52 52 51 50 50 49 49 49 49 49 49 48 48
39 40 41 42 43 44 44 45 46 48 49 50 51 51 52 52 52 52 52 52 52 52 52 52 52 52 53 53 54 54 53 52 51 51 50 50 50 50 51 50 49 48 48 48
42 43 44 45 45 46 47 48 49 50 51 51 52 52 53 53 53 53 53 53 53 53 53 53 53 53 53 54 54 54 53 53 52 51 51 50 50 50 50 50 50 49 48 47
44 45 46 47 47 48 49 50 50 51 52 53 53 53 53 53 54 54 54 53 53 53 53 53 54 54 54 54 54 53 53 53 53 52 51 50 49 49 49 49 49 48 48 48
46 47 48 48 49 50 50 51 51 52 52 53 53 53 53 53 54 54 54 54 54 55 54 54 54 54 53 53 53 53 52 52 51 51 50 49 48 47 47 48 48 47 48 48
47 48 48 49 49 50 50 51 51 51 52 52 53 53 54 54 54 54 54 54 54 55 54 54 54 53 53 52 51 51 50 49 49 48 48 47 46 45 46 46 47 47 47 47
47 48 48 49 49 50 50 51 51 51 52 52 53 54 55 54 54 54 54 54 54 53 53 52 52 52 52 51 50 49 48 48 47 47 47 46 46 45 45 45 46 46 47 47
47 48 48 48 49 49 49 50 51 51 52 53 53 54 54 53 53 53 52 52 52 52 52 51 51 51 50 49 49 48 47 47 46 46 45 45 45 45 44 44 45 45 45 45
48 47 48 48 49 49 49 50 51 52 53 53 53 52 52 51 51 51 51 50 50 50 50 50 49 48 48 47 47 46 45 45 44 44 43 43 43 43 43 43 43 42 42 42
48 49 50 50 50 51 51 52 52 52 52 52 51 50 50 50 50 49 49 48 48 48 48 47 47 46 46 46 45 44 43 42 41 41 41 41 41 41 41 42 42 41 40 40
49 50 50 51 51 51 52 52 52 51 51 50 49 49 48 49 49 48 48 47 46 46 46 45 45 45 45 44 43 42 41 40 39 39 39 39 40 40 39 39 40 39 39 38
49 49 50 50 50 51 51 51 50 49 49 48 47 47 47 47 48 47 47 46 45 44 43 43 42 42 42 41 40 39 39 38 38 37 36 36 37 36 36 36 36 35 36 36
Wind_Direction
196 202 208 213 217 222 229 236 245 248 254 259 265 270 273 276 279 282 286 290 292 294 296 296 297 295 294 295 296 297 298 298 298 297 297 298 299 301 303 307 310 312 313 316
210 217 220 224 231 237 243 249 255 259 261 263 265 269 272 276 280 282 284 287 290 292 294 295 297 296 294 295 296 296 297 297 297 297 297 297 297 298 299 301 303 306 308 309
228 233 235 241 246 250 255 258 261 264 267 268 269 273 274 276 280 283 285 287 288 290 292 294 295 297 297 296 295 296 296 296 295 295 296 296 295 296 297 297 298 300 301 302
240 245 250 256 258 262 263 265 267 268 270 272 274 275 277 278 281 283 285 286 287 289 291 293 293 294 294 295 295 295 295 295 295 294 294 293 292 293 293 294 295 295 296 297
248 255 259 263 266 268 270 272 273 273 274 275 277 277 278 280 281 284 285 285 285 286 289 291 291 291 292 292 292 292 293 293 293 293 292 291 290 290 290 290 291 291 292 292
256 260 265 267 269 272 274 275 277 276 276 277 280 281 281 282 283 284 285 285 285 286 287 288 290 290 290 291 291 290 290 290 290 289 289 288 287 287 287 287 288 288 288 287
259 263 267 271 273 275 276 278 277 277 278 279 280 282 283 282 283 284 285 285 286 287 288 289 290 290 290 289 289 289 288 287 287 287 286 285 284 285 285 285 285 285 285 284
261 264 269 272 274 276 278 278 278 279 279 281 282 283 284 284 284 284 284 285 285 287 288 288 289 289 288 288 288 287 287 287 286 286 285 284 282 282 282 283 283 283 283 282
264 267 270 272 275 277 278 279 279 280 281 281 282 283 284 285 285 285 285 285 286 286 287 287 287 287 287 287 287 287 286 286 285 284 284 282 281 281 281 281 281 281 280 279
267 269 272 274 276 278 279 280 280 281 283 283 283 283 284 284 285 285 285 285 285 285 286 286 286 286 286 285 285 286 285 285 285 284 283 281 280 280 279 278 277 278 277 277
270 272 274 277 278 279 280 281 281 282 283 284 284 284 284 284 285 286 286 286 285 285 285 285 285 285 285 284 285 285 285 285 285 284 283 282 279 277 276 275 274 274 274 274
272 274 276 277 279 281 282 283 283 284 284 284 285 286 286 287 287 287 287 287 286 286 285 285 285 285 285 285 284 284 284 284 284 284 283 281 279 276 274 273 273 272 272 272
275 277 279 280 281 282 283 284 284 284 285 285 286 286 287 287 287 287 287 287 287 286 286 285 285 285 285 285 284 284 283 283 283 283 282 281 279 276 273 272 271 270 270 270
277 278 280 281 283 283 284 284 285 285 285 286 286 287 287 287 288 288 288 287 287 287 286 286 286 285 285 285 284 283 283 282 282 281 280 279 277 274 272 271 269 268 268 268
277 279 280 282 283 284 284 285 285 286 286 287 287 288 288 288 289 289 289 289 288 288 288 287 287 286 285 285 284 284 283 283 282 280 278 276 274 272 271 271 270 269 268 267
279 281 282 283 284 285 285 285 286 286 286 287 287 288 288 289 290 290 290 290 289 289 288 288 287 286 286 285 285 284 284 283 281 279 277 275 273 272 271 270 270 269 268 266
280 282 283 283 284 285 286 286 287 287 287 287 288 288 289 289 290 290 290 290 290 289 289 288 288 287 287 286 286 285 284 283 281 279 277 275 273 271 270 269 269 269 268 266
281 282 283 284 285 285 286 286 287 287 287 288 289 289 289 289 289 289 289 290 290 290 289 289 288 288 287 287 286 285 284 282 281 279 278 276 273 272 270 269 269 268 267 265
281 283 283 284 285 285 286 286 287 287 288 288 289 289 290 290 289 289 289 289 289 290 290 289 289 289 288 287 286 285 284 282 280 279 278 276 274 272 270 268 268 267 266 264
282 283 283 284 284 285 286 287 287 287 288 288 289 289 289 290 289 289 289 289 290 290 290 289 289 288 288 287 286 285 283 282 280 278 277 275 274 272 270 268 267 266 265 264
282 283 283 284 285 286 286 287 287 287 288 288 289 289 290 290 290 290 290 290 290 290 290 290 290 289 288 288 287 285 284 282 280 277 276 274 274 272 270 268 266 266 265 263
283 283 284 284 285 286 287 287 288 288 289 290 290 291 291 291 290 290 291 291 291 291 290 290 290 290 289 288 287 285 284 283 280 277 275 274 273 272 270 269 267 266 265 263
283 283 284 285 286 287 287 288 288 289 290 291 292 293 292 292 292 291 291 291 291 290 290 290 291 290 289 288 287 285 283 282 279 276 274 272 272 272 270 269 268 266 265 263
283 284 285 286 286 287 288 289 289 291 291 292 292 293 293 293 293 293 292 292 291 290 289 290 290 290 289 288 287 286 284 282 279 276 273 272 271 270 270 269 267 265 264 261
283 284 285 286 287 288 289 290 291 291 292 292 292 292 292 293 294 294 293 293 292 292 291 290 289 289 289 288 287 286 285 283 279 276 273 271 271 270 270 268 266 263 261 260
283 284 285 286 288 289 290 291 291 291 292 292 291 291 292 293 293 294 293 293 293 293 292 291 290 290 289 288 287 285 284 282 278 275 274 272 272 271 270 268 265 262 260 257
284 285 286 287 288 289 290 291 292 292 292 292 292 291 292 292 293 293 294 294 293 293 293 292 291 290 289 288 287 285 283 281 279 277 275 273 272 272 271 268 266 263 259 255
Height
5827 5828 5829 5830 5830 5831 5832 5833 5833 5834 5834 5834 5834 5834 5834 5834 5834 5833 5833 5833 5832 5832 5831 5830 5829 5828 5827 5825 5824 5823 5822 5820 5819 5817 5816 5814 5813 5811 5809 5808 5806 5804 5802 5800
5826 5827 5827 5828 5829 5829 5830 5830 5831 5831 5832 5831 5831 5831 5831 5831 5831 5831 5830 5830 5829 5829 5828 5827 5825 5824 5823 5822 5820 5819 5818 5816 5815 5813 5812 5810 5809 5807 5806 5804 5802 5800 5799 5797
5825 5825 5826 5827 5827 5827 5828 5828 5828 5828 5829 5828 5828 5828 5828 5828 5827 5827 5827 5826 5826 5825 5824 5823 5821 5820 5819 5817 5816 5815 5814 5812 5811 5809 5808 5806 5805 5803 5802 5800 5798 5797 5795 5793
5823 5824 5824 5827 5825 5825 5825 5825 5825 5825 5824 5824 5824 5824 5824 5823 5823 5823 5822 5822 5821 5820 5819 5818 5817 5815 5814 5813 5811 5810 5809 5807 5806 5804 5803 5801 5800 5798 5797 5795 5794 5792 5790 5789
5821 5821 5821 5822 5821 5821 5821 5821 5821 5820 5820 5820 5819 5819 5819 5819 5818 5818 5817 5817 5816 5815 5814 5813 5811 5810 5808 5807 5806 5804 5803 5801 5800 5799 5797 5796 5794 5793 5791 5790 5788 5787 5785 5784
5817 5817 5818 5819 5818 5817 5818 5817 5817 5816 5816 5815 5815 5814 5814 5813 5812 5812 5811 5810 5809 5808 5807 5806 5805 5803 5802 5800 5799 5797 5796 5795 5793 5792 5790 5789 5787 5786 5785 5783 5782 5780 5779 5777
5812 5812 5813 5813 5812 5813 5814 5813 5812 5811 5811 5810 5809 5809 5808 5807 5806 5805 5804 5803 5802 5801 5800 5799 5797 5796 5794 5793 5791 5790 5788 5787 5785 5783 5782 5780 5779 5778 5777 5776 5774 5773 5772 5770
5807 5808 5809 5807 5807 5807 5807 5806 5805 5805 5805 5804 5803 5802 5801 5800 5799 5798 5797 5796 5795 5793 5792 5790 5789 5787 5785 5783 5782 5780 5778 5777 5776 5774 5772 5771 5770 5769 5767 5766 5765 5764 5762 5761
5803 5804 5802 5801 5801 5800 5800 5799 5799 5798 5798 5797 5796 5795 5794 5793 5791 5790 5788 5787 5786 5784 5783 5781 5779 5777 5775 5773 5771 5769 5767 5766 5764 5763 5761 5760 5759 5758 5757 5755 5754 5753 5752 5751
5795 5795 5795 5795 5794 5794 5793 5792 5792 5791 5790 5789 5788 5786 5785 5784 5782 5781 5779 5777 5776 5774 5772 5770 5767 5765 5763 5761 5759 5757 5755 5753 5751 5750 5748 5747 5746 5745 5744 5743 5742 5742 5741 5740
5788 5788 5788 5787 5786 5786 5785 5784 5783 5782 5781 5780 5778 5777 5775 5774 5772 5770 5768 5766 5764 5762 5759 5757 5755 5752 5750 5748 5746 5744 5742 5740 5738 5736 5735 5733 5732 5731 5731 5730 5729 5729 5729 5728
5781 5780 5779 5779 5778 5777 5776 5775 5774 5773 5771 5770 5768 5766 5764 5762 5760 5758 5756 5753 5750 5748 5745 5743 5740 5738 5735 5733 5731 5729 5727 5725 5723 5721 5719 5718 5717 5716 5716 5716 5715 5715 5714 5714
5771 5770 5770 5769 5768 5767 5766 5765 5763 5762 5760 5758 5756 5754 5752 5750 5747 5745 5742 5739 5736 5733 5730 5727 5725 5722 5720 5717 5715 5713 5711 5709 5707 5705 5703 5701 5700 5699 5700 5700 5700 5699 5699 5699
5761 5760 5759 5759 5758 5756 5755 5753 5752 5750 5748 5746 5744 5741 5739 5736 5733 5730 5727 5724 5720 5717 5714 5711 5709 5706 5703 5701 5699 5697 5694 5692 5690 5688 5686 5684 5683 5682 5682 5683 5684 5684 5684 5684
5750 5749 5749 5747 5746 5744 5743 5741 5739 5737 5735 5732 5730 5727 5724 5721 5718 5715 5711 5707 5704 5701 5698 5695 5692 5689 5686 5684 5681 5679 5677 5675 5673 5670 5669 5667 5666 5665 5665 5665 5666 5667 5667 5668
5738 5737 5736 5735 5733 5732 5730 5728 5726 5723 5721 5718 5715 5712 5708 5705 5702 5698 5695 5691 5688 5684 5681 5678 5675 5672 5669 5666 5664 5661 5659 5657 5654 5652 5651 5650 5649 5648 5648 5648 5648 5649 5649 5650
5726 5725 5723 5722 5720 5718 5716 5713 5711 5708 5705 5702 5699 5696 5692 5689 5685 5682 5678 5674 5671 5667 5664 5661 5658 5655 5651 5648 5645 5643 5641 5639 5636 5634 5633 5632 5631 5630 5630 5630 5630 5631 5632 5632
5712 5711 5709 5707 5705 5703 5701 5698 5695 5692 5689 5685 5682 5679 5676 5672 5668 5665 5661 5658 5654 5651 5647 5643 5640 5637 5634 5630 5627 5624 5622 5620 5618 5616 5615 5613 5612 5612 5611 5612 5612 5613 5613 5614
5698 5696 5694 5692 5690 5687 5685 5682 5679 5676 5672 5669 5666 5662 5658 5655 5651 5648 5644 5641 5637 5634 5630 5626 5623 5619 5616 5612 5609 5606 5603 5601 5599 5597 5596 5595 5594 5593 5593 5593 5594 5595 5596 5597
5683 5681 5679 5676 5674 5671 5668 5665 5662 5659 5656 5652 5649 5645 5642 5638 5634 5630 5627 5624 5620 5615 5612 5608 5605 5601 5598 5594 5590 5587 5585 5582 5580 5579 5577 5577 5576 5575 5575 5575 5576 5577 5578 5579
5667 5665 5663 5660 5658 5655 5652 5649 5646 5643 5639 5636 5632 5628 5625 5621 5617 5613 5609 5606 5602 5598 5594 5590 5586 5583 5579 5575 5572 5569 5566 5564 5562 5560 5559 5559 5558 5558 5558 5558 5558 5559 5560 5562
5651 5649 5647 5645 5642 5639 5636 5633 5629 5626 5623 5620 5616 5612 5608 5604 5600 5596 5592 5588 5584 5580 5576 5573 5569 5565 5561 5558 5555 5552 5549 5547 5544 5543 5542 5542 5541 5541 5541 5541 5541 5542 5543 5545
5636 5633 5631 5629 5626 5623 5620 5617 5613 5610 5607 5603 5599 5594 5590 5586 5582 5578 5576 5572 5567 5563 5559 5556 5553 5549 5545 5541 5538 5535 5532 5530 5527 5526 5525 5525 5524 5524 5525 5525 5525 5526 5527 5528
5620 5618 5615 5613 5610 5607 5605 5601 5598 5594 5590 5586 5582 5577 5573 5569 5566 5562 5558 5555 5551 5546 5543 5540 5536 5532 5529 5525 5522 5519 5516 5513 5511 5510 5509 5509 5508 5508 5508 5509 5509 5510 5511 5513
5604 5602 5599 5597 5594 5591 5588 5585 5581 5578 5574 5570 5566 5561 5557 5553 5550 5546 5542 5538 5534 5530 5527 5524 5520 5517 5513 5510 5507 5504 5501 5498 5496 5495 5494 5494 5493 5493 5493 5494 5494 5495 5497 5498
5588 5586 5583 5580 5577 5574 5571 5568 5565 5561 5557 5554 5550 5546 5542 5538 5534 5530 5527 5523 5519 5515 5512 5509 5505 5502 5498 5495 5492 5489 5486 5484 5482 5480 5480 5479 5479 5479 5479 5479 5479 5480 5482 5484
5572 5570 5567 5565 5561 5558 5555 5552 5549 5545 5542 5538 5535 5531 5527 5523 5519 5515 5512 5508 5505 5501 5497 5494 5490 5487 5484 5481 5478 5475 5473 5471 5469 5467 5466 5466 5466 5465 5465 5465 5466 5467 5469 5471